Hourly Data Report for October 06, 2017

All times are specified in Local Standard Time (LST). Add 1 hour to adjust for Daylight Saving Time where and when it is observed.

NORTH CAPE
PRINCE EDWARD ISLAND

47°03'29.000" N
63°59'55.000" W
7.60 m
8300516
71987
WNE

Download Data

Hourly Data (October 2017)
Hourly Data Report for October 6, 2017
Temp Definition
°C
Dew Point Temp Definition
°C
Rel Hum Definition
%
Wind Dir Definition
10's deg

Wind Spd Definition
km/h
Visibility Definition
km
Stn Press Definition
kPa
Hmdx Definition


Wind Chill Definition


Weather Definition


TIME
00:00 14.8 7.6 62 22 26   100.88     LegendNANA
01:00 14.4 8.7 68 23 30   100.91     LegendNANA
02:00 14.3 9.7 74 25 38   100.93     LegendNANA
03:00 13.8 9.4 75 26 30   100.97     LegendNANA
04:00 13.5 9.5 77 26 27   100.98     LegendNANA
05:00 13.2 9.4 78 27 28   101.05     LegendNANA
06:00 13.3 8.6 73 29 34   101.10     LegendNANA
07:00 12.6 7.6 71 30 41   101.17     LegendNANA
08:00 12.4 7.2 71 29 37   101.27     LegendNANA
09:00 12.5 7.3 70 29 30   101.35     LegendNANA
10:00 12.3 6.9 70 28 24   101.39     LegendNANA
11:00 12.5 7.1 70 27 28   101.39     LegendNANA
12:00 13.0 6.6 65 27 20   101.33     LegendNANA
13:00 12.9 6.8 66 28 18   101.31     LegendNANA
14:00 13.9 7.1 64 25 13   101.31     LegendNANA
15:00 14.2 5.7 57 23 13   101.30     LegendNANA
16:00 14.0 8.2 68 23 9   101.27     LegendNANA
17:00 14.3 8.6 68 23 18   101.30     LegendNANA
18:00 13.5 8.7 73 31 15   101.35     LegendNANA
19:00 12.5 8.1 75 31 4   101.43     LegendNANA
20:00 8.9 6.3 84 20 7   101.45     LegendNANA
21:00 11.7 8.7 82 24 9   101.54     LegendNANA
22:00 10.6 7.0 78 25 10   101.61     LegendNANA
23:00 12.9 9.5 80 28 17   101.67     LegendNANA

Notes on Data Quality.

Legend

  • E = Estimated
  • M = Missing
  • NA = Not Available
  • ‡ = Partner data that is not subject to review by the National Climate Archives
Date modified: